Location: Boiro
(42.6475°N, 8.8834°W)
Time: 18:54:23
(UTC+01:00)

Transit 2A - Visible Passes

Search period start: 30 November 2021 00:00
Search period end: 10 December 2021 00:00
Orbit: 591 x 967 km, 66.7° (Epoch: 29 November)

Date Brightness Start Highest point End Pass type
(mag) Time Alt. Az. Time Alt. Az. Time Alt. Az.
05 Dec 8.6 07:49:02 10° N 07:52:14 14° NNE 07:55:24 10° ENE visible
06 Dec 8.7 07:15:30 10° N 07:17:29 11° NNE 07:19:27 10° NE visible
07 Dec 8.0 08:22:47 10° NNW 08:28:15 29° NE 08:33:31 10° ESE visible
08 Dec 8.3 07:48:47 10° N 07:53:42 23° NE 07:58:29 10° E visible
09 Dec 8.5 07:14:51 10° N 07:19:05 18° NE 07:23:14 10° ENE visible
